Voltar ao catálogo

THOR ABLESTAR DEB

AtivoLEO
NORAD 13511·DEBRIS·🇺🇸 United States

Lançado Jun 29, 1961 de Cape Canaveral Space Force Station

Loading…

Próximas Passagens (próximas 24 horas)

TLE

AtualizadoSource: Space-Track

Época: Sep 13, 2026, 07:36 UTC

1 13511U 61015KU  26256.31715245  .00000092  00000-0  19289-3 0  9996
2 13511  65.8441   6.6060 0113477 134.3390 258.0601 13.67869289303158

Acompanhe THOR ABLESTAR DEB em tempo real com AllMySat

Download on the App Store